DW8923 Weather Reports


Display with metric or nautical units.
time (UTC)temp
F
wind
direction
speed
MPH
gust
MPH
rain 1hr
in
rain 24hr
in
rain mn
in
humidity
%
barometer
mb
20260510164537 82 136 6.0 13.0 0.00 0.00 0.00 71 1012.6
20260510163035 82 97 2.0 10.0 0.00 0.00 0.00 75 1012.7
20260510161535 81 115 3.0 10.0 0.00 0.00 0.00 75 1012.6
20260510160035 80 129 4.0 12.0 0.00 0.00 0.00 76 1012.7
20260510154527 80 82 4.0 9.0 0.00 0.00 0.00 77 1012.8
20260510153033 80 86 3.0 6.0 0.00 0.00 0.00 76 1012.6
20260510151525 80 66 3.0 7.0 0.00 0.00 0.00 77 1012.6
20260510150032 79 130 3.0 8.0 0.00 0.00 0.00 76 1012.6
20260510144522 78 30 4.0 7.0 0.00 0.00 0.00 77 1012.4
20260510143020 78 119 2.0 7.0 0.00 0.00 0.00 78 1012.3
20260510141523 77 177 2.0 7.0 0.00 0.00 0.00 80 1012.3
20260510140008 75 136 2.0 5.0 0.00 0.00 0.00 83 1012.2
20260510134503 74 152 2.0 7.0 0.00 0.00 0.00 85 1011.9
20260510133001 72 130 2.0 4.0 0.00 0.00 0.00 88 1011.7
20260510131558 71 147 1.0 5.0 0.00 0.00 0.00 90 1011.4
20260510130056 70 119 0.0 3.0 0.00 0.00 0.00 92 1011.1
20260510130002 70 130 1.0 3.0 0.00 0.00 0.00 92 1011.1
20260510124601 69 98 0.0 2.0 0.00 0.00 0.00 92 1010.9
20260510123054 68 73 0.0 1.0 0.00 0.00 0.00 92 1010.7
20260510121548 68 152 0.0 1.0 0.00 0.00 0.00 91 1010.3
20260510120046 68 152 0.0 0.0 0.00 0.00 0.00 91 1010.0
20260510114544 68 152 0.0 5.0 0.00 0.00 0.00 90 1009.6
20260510113043 68 157 1.0 3.0 0.00 0.00 0.00 90 1009.6
20260510111542 69 164 0.0 3.0 0.00 0.00 0.00 89 1009.6
20260510110040 69 149 0.0 1.0 0.00 0.00 0.00 88 1009.5
20260510104538 69 170 0.0 3.0 0.00 0.00 0.00 88 1009.5
20260510103038 69 121 0.0 3.0 0.00 0.00 0.00 88 1009.5
20260510101535 70 165 0.0 8.0 0.00 0.00 0.00 88 1009.2
20260510100036 70 152 0.0 5.0 0.00 0.00 0.00 87 1009.0
20260510094540 70 119 0.0 4.0 0.00 0.00 0.00 87 1008.9
20260510093031 70 137 2.0 5.0 0.00 0.00 0.00 86 1008.6
20260510091532 70 142 2.0 5.0 0.00 0.00 0.00 86 1008.6
20260510090028 71 156 3.0 7.0 0.00 0.00 0.00 85 1008.6
20260510084527 71 161 2.0 5.0 0.00 0.00 0.00 84 1008.7
20260510083025 71 166 2.0 6.0 0.00 0.00 0.00 83 1008.7
20260510081534 72 134 3.0 7.0 0.00 0.00 0.00 83 1009.0
20260510080018 72 148 1.0 7.0 0.00 0.00 0.00 82 1009.1
20260510074518 72 132 2.0 7.0 0.00 0.00 0.00 82 1009.2
20260510073016 73 150 2.0 6.0 0.00 0.00 0.00 81 1009.3
20260510071515 73 136 2.0 9.0 0.00 0.00 0.00 81 1009.3
20260510070013 73 115 3.0 6.0 0.00 0.00 0.00 80 1009.1
20260510064516 73 159 2.0 6.0 0.00 0.00 0.00 80 1009.1
20260510063016 73 151 1.0 4.0 0.00 0.00 0.00 79 1009.1
20260510061521 73 140 2.0 5.0 0.00 0.00 0.00 80 1009.1
20260510060009 73 180 1.0 5.0 0.00 0.00 0.00 82 1009.1
20260510054507 73 136 1.0 4.0 0.00 0.00 0.00 83 1009.0
20260510053006 73 130 1.0 3.0 0.00 0.00 0.00 86 1008.9
20260510051514 73 98 0.0 3.0 0.00 0.00 0.00 87 1009.0
20260510050059 73 123 0.0 1.0 0.00 0.00 0.00 86 1009.0
20260510044558 73 167 0.0 0.0 0.00 0.00 0.00 84 1008.9
20260510043100 74 167 0.0 0.0 0.00 0.00 0.00 82 1009.0
20260510041635 74 167 0.0 0.0 0.00 0.00 0.00 81 1009.1
20260510040056 75 97 0.0 0.0 0.00 0.00 0.00 80 1009.1
20260510034602 75 97 0.0 0.0 0.00 0.00 0.00 78 1008.8
20260510033116 76 97 0.0 0.0 0.00 0.00 0.00 79 1008.7
20260510031557 76 121 0.0 1.0 0.00 0.00 0.00 78 1008.6
20260510030055 77 121 0.0 1.0 0.00 0.00 0.00 76 1008.5
20260510024609 78 121 0.0 0.0 0.00 0.00 0.00 74 1008.1
20260510023059 79 121 0.0 0.0 0.00 0.00 0.00 71 1007.9
20260510021554 80 121 0.0 0.0 0.00 0.00 0.00 70 1007.7
20260510020053 81 121 0.0 2.0 0.00 0.00 0.00 70 1007.5
20260510014612 81 107 0.0 3.0 0.00 0.00 0.00 69 1007.3
20260510013102 82 141 1.0 4.0 0.00 0.00 0.00 68 1007.0
20260510011552 83 110 1.0 6.0 0.00 0.00 0.00 67 1007.0
20260510010051 84 111 2.0 4.0 0.00 0.00 0.00 66 1006.9
20260510004553 85 98 1.0 4.0 0.00 0.00 0.00 64 1006.8
20260510003050 86 94 2.0 7.0 0.00 0.00 0.00 61 1006.6
20260510001549 88 85 3.0 8.0 0.00 0.00 0.00 58 1006.6
20260510000048 90 119 1.0 5.0 0.00 0.00 0.00 51 1006.4
20260509234548 91 256 0.0 1.0 0.00 0.00 0.00 46 1006.3
20260509233051 91 256 0.0 2.0 0.00 0.00 0.00 45 1006.2
20260509231557 90 224 0.0 4.0 0.00 0.00 0.00 46 1006.2
20260509230046 90 261 3.0 10.0 0.00 0.00 0.00 47 1006.1
20260509224545 91 92 2.0 6.0 0.00 0.00 0.00 47 1006.2
20260509223050 91 99 1.0 3.0 0.00 0.00 0.00 47 1006.3
20260509221545 91 121 1.0 5.0 0.00 0.00 0.00 48 1006.1
20260509220045 91 99 0.0 5.0 0.00 0.00 0.00 48 1006.3
20260509214540 92 128 0.0 5.0 0.00 0.00 0.00 47 1006.4
20260509213036 92 135 1.0 4.0 0.00 0.00 0.00 45 1006.5
20260509211533 91 325 0.0 3.0 0.00 0.00 0.00 44 1006.8
20260509210041 91 321 0.0 3.0 0.00 0.00 0.00 45 1007.0
20260509204525 90 294 0.0 3.0 0.00 0.00 0.00 46 1007.3
20260509203024 90 144 1.0 4.0 0.00 0.00 0.00 47 1007.6
20260509201525 89 172 3.0 7.0 0.00 0.00 0.00 48 1007.9
20260509200016 89 109 1.0 6.0 0.00 0.00 0.00 50 1008.1
20260509194513 87 236 0.0 4.0 0.00 0.00 0.00 51 1008.1
20260509193009 86 44 0.0 4.0 0.00 0.00 0.00 58 1008.2
20260509191508 85 27 0.0 6.0 0.00 0.00 0.00 61 1008.4
20260509190006 84 339 1.0 4.0 0.00 0.00 0.00 68 1008.8
20260509184514 83 262 0.0 4.0 0.00 0.00 0.00 75 1008.9
20260509183004 81 313 0.0 3.0 0.00 0.00 0.00 78 1009.2
20260509181503 80 73 0.0 2.0 0.00 0.00 0.00 79 1009.5
20260509180002 80 116 0.0 3.0 0.00 0.00 0.00 78 1009.7
20260509174505 80 86 1.0 4.0 0.00 0.00 0.00 77 1009.6
20260509173002 80 35 0.0 3.0 0.00 0.00 0.00 84 1009.8
20260509171503 79 75 0.0 5.0 0.00 0.00 0.00 81 1010.1
20260509170122 80 94 1.0 4.0 0.00 0.00 0.00 77 1010.2